Regional Weather Roundup
Issued by NWS Jackson, KY

Home | Current Version | Previous Version | Graphics & Text | Print | Product List | Glossary On
Versions: 1 2 3 4 5 6 7 8 9 10 11 12 13 14 15 16 17 18 19 20 21 22 23 24 25 26 27 28 29 30 31 32 33 34 35 36 37 38 39 40 41 42 43 44 45 46 47 48 49 50
000
ASUS43 KJKL 182005
RWRJKL

EAST KENTUCKY HOURLY WEATHER ROUNDUP
NATIONAL WEATHER SERVICE JACKSON KY
300 PM EST THU DEC 18 2014

NOTE: "FAIR" INDICATES FEW OR NO CLOUDS BELOW 12,000 FEET WITH
NO SIGNIFICANT WEATHER AND/OR OBSTRUCTIONS TO VISIBILITY.

* THESE REPORTS ARE NOT UNDER NWS QUALITY CONTROL AND MAY NOT
  REPORT WEATHER SUCH AS PRECIPITATION AND FOG.

KYZ079-080-083-085-087-088-110-112-115-119-120-182100
...EASTERN KENTUCKY...

CITY           SKY/WX    TMP DP  RH WIND       PRES   REMARKS
JACKSON        CLOUDY    35  24  64 NW8       30.17R WCI  29
LONDON         CLOUDY    36  26  67 NW7       30.19R WCI  30
SOMERSET*      CLOUDY    34  27  75 CALM      30.21F
MONTICELLO*    CLOUDY    36  28  73 N5        30.22S WCI  32
MIDDLESBORO*   CLOUDY    42  30  63 N6        30.14F
HARLAN APT*    CLOUDY    41  27  56 NW6       30.13S
BLACK MTN*       N/A     32  25  74 CALM        N/A
PIKEVILLE APT* CLOUDY    34  25  69 NW6       30.14S WCI  29
BIG SANDY*     CLOUDY    34  25  70 N5        30.17R WCI  30
MOREHEAD APT*  CLOUDY    32  23  69 VRB3      30.23S
$$

KYZ035-036-041-042-044-050-067-078-099-182100
...CENTRAL KENTUCKY...

CITY           SKY/WX    TMP DP  RH WIND       PRES   REMARKS
MT STERLING*   CLOUDY    32  27  80 CALM      30.22S
FLEMING/MASON* CLOUDY    28  22  77 CALM      30.22S
DANVILLE*      CLOUDY    32  27  80 CALM      30.21F
RICHMOND*      CLOUDY    32  25  74 NW3       30.20F
LEXINGTON      CLOUDY    31  23  72 CALM      30.21F
FRANKFORT      CLOUDY    31  23  72 E3        30.21F
$$

KYZ091>093-OHZ055-061-077-WVZ005-015-034-035-042-182100
...SOUTHERN OHIO/WEST VIRGINIA...

CITY           SKY/WX    TMP DP  RH WIND       PRES   REMARKS
COVINGTON      CLOUDY    29  19  66 CALM      30.20F
COLUMBUS       CLOUDY    28  20  71 NW7       30.20S WCI  21
DAYTON         CLOUDY    28  21  75 NW6       30.21F WCI  22
WILMINGTON     CLOUDY    28  19  69 W5        30.19F WCI  23
HUNTINGTON     CLOUDY    31  22  69 NW6       30.20S WCI  25
CHARLESTON     CLOUDY    32  22  66 NW6       30.18F WCI  26
PINEVILLE*     CLOUDY    39  28  62 MISG      30.14F
BECKLEY        CLOUDY    35  21  56 W6        30.06F WCI  30
BLUEFIELD      CLOUDY    37  17  44 W9        30.05F WCI  30
$$

VAZ002-007-008-TNZ017-027-036-066-071-182100
...SOUTHWEST VIRGINIA/EAST TENNESSEE...

CITY           SKY/WX    TMP DP  RH WIND       PRES   REMARKS
WISE*          CLOUDY    39  25  56 N6        30.09R WCI  35
JONESVILLE*    MOCLDY    41  28  60 CALM      30.14S
ABINGDON*      CLOUDY    41  28  60 W5        30.09S
BRISTOL        CLOUDY    41  28  60 CALM      30.11F
KNOXVILLE      CLOUDY    43  30  60 CALM      30.13F
OAK RIDGE      LGT RAIN  46  28  49 CALM      30.15S
CROSSVILLE     CLOUDY    42  32  67 NW8       30.13F
NASHVILLE      CLOUDY    39  33  79 N6        30.21F WCI  35
$$

...KEY TO REMARKS...
VSB - VISIBILITY IN MILES
WCI - WIND CHILL INDEX
HX  - HEAT INDEX

$$



USA.gov is the U.S. government's official web portal to all federal, state and local government web resources and services.